Погода в Рыбинске

Погода в Рыбинске : погода сейчас, прогноз погоды и архив. Всё, что Вы хотите узнать о погоде в Рыбинске!

Хотите узнать прогноз погоды в Рыбинске? Тогда Вам сюда: Погода в Рыбинске

Поиск расширенной информации на нашем сайте:

Другие новости

Новости СМИ2

Главная страница сайта

Новости сайта

03.07.2017

Напоминаем, что на нашем специализированном сайте Метеоцентр.Азия вы можете получить высокодетализированные автоматические прогнозы погоды по пунктам России, СНГ и мира в авиационном формате (включающие направление и скорость ветра, видимость, явления погоды, количество и форму облачности, нижнюю и верхнюю границу облачности).

Рекомендуем: Женский журнал http://clubkrasotki.ru

Погода в Рыбинске - сегодня

Время (UTC), дата Ветер
(°,м/с) 
Видим.   Явления Облачность Т
(°С)
Тd
(°С)
f(%) Тe
(°С)
Pmin
(гПа)
dP
(гПа)
Po
(мм)
O2
(г/м3)
Тmin Tmax R s Состояние
почвы
18 20.02.18 320 (СЗ) 9000 м  слаб. снег  10/0 средняя 
[As op]
-13.3 -14.9 88 -15  1019.2  0.2  754  321           
21 20.02.18 310 (СЗ) 8000 м  слаб. снег  10/0 средняя 
[As op]
-16.5 -18.3 86 -19  1019.4  754  325           
03 21.02.18 320 (СЗ) 9000 м  слаб. снег  ясно средняя 
[As op]
-18.5 -20.5 84 -21  1020.8  0.6  755  328  -20.1    0.2  38  равномерный
сухой снег
100% 
06 21.02.18 320 (СЗ) 1500 м  дымка{снег, туман}  ясно 
-14.8 -16.6 86 -17  1021  0.4  755  323           
09 21.02.18 320 (СЗ) 15000 м  {снег}  4/4 2000 м средняя 
[Ac trans]
-12.6 -15 82 -16  1021.7  0.8  756  321           
18 21.02.18 310 (СЗ) 10 км    4/4 2000 м средняя 
[As trans]
-17.6 -20.1 81 -20  1024.3  0.7  758  328           
21 21.02.18 340 (С) 11000 м    ясно 
-19.7 -21.9 83 -20  1025.4  0.9  758  331           
00 22.02.18 280 (З) 11000 м    ясно 
-21.6 -23.9 82 -22  1026.4  0.9  759  334           
03 22.02.18 тихо ()   11000 м    ясно 
-23.3 -25.7 81 -23  1027.1  0.6  759  336  -24.2      39  равномерный
сухой снег
100% 
06 22.02.18 340 (С) 12000 м    ясно 
-22.3 -24.8 80 -23  1027.8  0.8  760  335           
09 22.02.18 340 (С) 14000 м    6/0 верхняя 
[Ci fib]
-17.5 -20.3 79 -18  1028.2  0.7  760  329           
12 22.02.18 тихо ()   13000 м    ясно 
-12.2 -17.6 64 -12  1027.9  760  322           
15 22.02.18 тихо ()   14000 м    ясно 
-16.9 -18.4 88 -17  1027.1  -1.1  760  328    -11.6       
18 22.02.18 тихо ()   12000 м    ясно 
-20.6 -22.7 83 -21  1027.6  0.2  760  333           
21 22.02.18 260 (З) 12000 м    ясно 
-13.9 -15.6 87 -16  1026.8  -0.3  760  324           
00 23.02.18 290 (З) 10 км    6/0 средняя 
[Ac trans]
-15 -16.6 88 -15  1027  760  325           
03 23.02.18 260 (З) 11000 м    ясно 
-17.3 -19 87 -17  1026.5  -0.5  759  328  -21.3      39  равномерный
сухой снег
100% 
06 23.02.18 250 (З) 11000 м    4/4 2000 м средняя 
[Ac trans]
-16.3 -18.2 85 -16  1026.2  -0.2  759  327           
09 23.02.18 300 (СЗ) 13000 м  слаб. снег  4/0 верхняя 
[Ci fib]
-11.1 -14.7 75 -11  1026.4  0.4  759  320           
18 23.02.18 330 (СЗ) 12000 м  {снег}  ясно 
-18 -19.9 85 -18  1026.9  0.4  759  329           
21 23.02.18 тихо ()   12000 м    ясно 
-21.3 -23.3 84 -21  1027.5  0.4  760  334           
00 24.02.18 330 (СЗ) 11000 м    ясно 
-23 -25.1 83 -23  1027.9  0.3  760  336           
03 24.02.18 320 (СЗ) 11000 м    6/0 верхняя 
[Ci fib]
-21.7 -23.7 84 -22  1028.1  0.3  760  334  -23    0.0  39  равномерный
сухой снег
100% 
06 24.02.18 330 (СЗ) 9000 м  слаб. снег  10/10 2000 м 
[Ns]
-21.2 -23.7 80 -22  1029  0.9  761  334           
09 24.02.18 300 (СЗ) 13000 м  {снег}  ясно 
-16.2 -19.6 75 -16  1029.2  0.5  761  328           
Время (UTC), дата Ветер
(°,м/с) 
Видим.   Явления Облачность Т
(°С)
Тd
(°С)
f(%) Тe
(°С)
Pmin
(гПа)
dP
(гПа)
Po
(мм)
O2
(г/м3)
Тmin Tmax R s Состояние
почвы

Для получения пояснительной информации подведите курсор к названию столбца.

ПОГОДА в Рыбинске - архив

Всё, что Вы хотите узнать о погоде в Рыбинске - удобно и подробно!

Выберите нужную дату (начиная с 1 января 2015* года) и нажмите кнопку "Найти".
Будут отображены архивные сводки погоды по пункту Рыбинск, начиная с указанной даты.


Отображать данные в формате CSV (для использования в таблицах Excel)


Внимание! Наш архив погоды предназначен исключительно для личного некоммерческого использования в познавательных целях. Если Вам необходимы официальные справки о состоянии погоды (для производственных, юридических, коммерческих и т.п. целей), обращайтесь в органы Росгидромета.

*Примечание: данная дата относится к архиву по метеостанциям СССР (Россия, СНГ, Балтия).
Архив по метеостанциям Зарубежной Европы и Азии (кроме Китая) хранится 10 дней, по другим регионам земного шара (Китай, Африка, Америка, Австралия, Океания) - 1 день.

Рыбинск - район местоположения метеостанции


Название, широта, долгота, высота метеостанции:
Рыбинск 58.1°ш. 38.7°д. 105 м над ур. моря [Российская Федерация]

Дополнительная информация

В oтличие oт бoльшинства пoгoдных сайтoв мы публикуем пoдрoбную метеoинфoрмацию в детальнoм прoфессиoнальнoм фoрмате.

Характеристики температуры и влажнoсти вoздуха измеряются на высoте 2 м в тени вдали oт зданий и деревьев.
Скoрoсть ветра измеряется на высoте 10 м (на урoвне рoста челoвека скoрoсть ветра ниже в 1.5-2 раза). Если метеoстанция нахoдится в гoрoде или в лесу, тo скoрoсть ветра занижена на 2-4 м/с пo сравнению с oткрытым местoм. Скoрoсть ветра над акватoриями крупных рек и oзёр, а также на вершинах хoлмoв на 2-5 м/с выше, чем в oбычных услoвиях.
Атмoсфернoе давление в разных тoчках местнoсти мoжет значительнo oтличаться oт давления на метеoстанции, в зависимoсти oт услoвий рельефа (при пoдъёме на 10 м давление пoнижается примернo на 1 мм рт.ст.).